Lexington Weather

Lexington, Massachusetts, USA

67°F
9/23/2021 4:16am 
  • Lexington Conditions: Overcast
  • Temperature: 66.7°F / 19.3°CWarmer 0.5°F than last hour.
  • Dew Point: 65.5°FIncreased 0.6°Fsince last hour.
  • Relative Humidity: 96
  • Wind: Calm, 10-min avg: Calm, gust: 2 mph
  • Barometer: 30.03 in Steady
  • Visibility: 10 miles
  • Rain Today: 0.00 in
  •   

Regional Weather Roundup
for Boston / Norton, MA

        
000
ASUS41 KBOX 200104
RWRBOX

REGIONAL WEATHER ROUNDUP
NATIONAL WEATHER SERVICE BOSTON/NORTON MA
900 PM EDT SUN SEP 19 2021

NOTE:  "FAIR" INDICATES FEW OR NO CLOUDS BELOW 12,000 FEET WITH NO 
SIGNIFICANT WEATHER AND/OR OBSTRUCTIONS TO VISIBILITY.

MAZALL-200200-
EASTERN MASSACHUSETTS
  
CITY           SKY/WX    TMP DP  RH WIND       PRES   REMARKS
BOSTON         CLEAR     64  55  72 S5        30.22R                  
BEVERLY        CLEAR     58  55  90 CALM      30.21R                  
LAWRENCE       CLEAR     60  55  83 CALM      30.23R                  
BEDFORD        CLEAR     59  57  93 CALM      30.20R                  
BLUE HILL      NOT AVBL                                               
NORWOOD        CLEAR     56  53  90 CALM      30.21R                  
MARSHFIELD     CLEAR     55  54  94 CALM      30.21R                  
PLYMOUTH       CLEAR     56  53  90 CALM      30.22R                  
TAUNTON        CLEAR     53  51  93 CALM      30.21R                  
NEW BEDFORD    CLEAR     54  53  97 CALM      30.21R                  
$$

MAZALL-200200-
CAPE COD AND THE ISLANDS
  
CITY           SKY/WX    TMP DP  RH WIND       PRES   REMARKS
FALMOUTH       CLEAR     54  52  94 CALM      30.21R                  
HYANNIS        CLEAR     54  50  86 CALM      30.21R                  
CHATHAM        CLEAR     62  53  72 NE3       30.22R                  
PROVINCETOWN   CLEAR     55  52  89 E3        30.22R                  
NANTUCKET      CLEAR     57  50  77 NE7       30.21R                  
MARTHAS VNYRD  CLEAR     56  50  80 NE6       30.21R                  
$$
 
MAZALL-200200-
CENTRAL AND WESTERN MASSACHUSETTS
  
CITY           SKY/WX    TMP DP  RH WIND       PRES   REMARKS
WORCESTER      CLEAR     64  51  62 N5        30.23R                  
FITCHBURG      CLEAR     59  54  83 CALM      30.23R                  
ORANGE         CLEAR     56  53  90 N3        30.24R                  
SPRINGFIELD    CLEAR     57  56  97 CALM      30.20R                  
WESTFIELD      CLEAR     57  57 100 CALM      30.21R                  
NORTH ADAMS    CLEAR     54  51  90 CALM      30.25R                  
PITTSFIELD     CLEAR     53  51  93 CALM      30.24R                  
$$
 
RIZALL-200200-
RHODE ISLAND
  
CITY           SKY/WX    TMP DP  RH WIND       PRES   REMARKS
PROVIDENCE     CLEAR     64  54  69 CALM      30.22R                  
NEWPORT        CLEAR     60  51  72 E5        30.21R                  
BLOCK ISLAND   CLEAR     61  51  70 CALM      30.22R                  
SMITHFIELD     CLEAR     56  54  93 CALM      30.22R                  
WESTERLY       CLEAR     57  56  96 CALM      30.21R                  
$$
 
CTZALL-200200-
CONNECTICUT
  
CITY           SKY/WX    TMP DP  RH WIND       PRES   REMARKS
BRADLEY INTL   CLEAR     59  53  80 NW3       30.21R                  
HARTFORD       CLEAR     63  57  81 CALM      30.20R                  
BRIDGEPORT     CLEAR     67  54  63 NW5       30.20R                  
DANBURY        CLEAR     60  55  83 SW6       30.23R                  
GROTON         CLEAR     60  57  89 CALM      30.21R                  
NEW HAVEN      CLEAR     65  54  67 CALM      30.21R                  
CHESTER        FAIR      59  57  94 CALM      30.22R                  
MERIDEN        CLEAR     57  53  86 CALM      30.21R                  
WILLIMANTIC    CLEAR     59  57  93 CALM      30.22R                  
OXFORD         CLEAR     58  54  86 N7        30.23R                  
$$

MEZ002-015-021-024-NHZ003-005-008-011-012-014-VTZ005-008-200200-
NORTHERN NEW ENGLAND
  
CITY           SKY/WX    TMP DP  RH WIND       PRES   REMARKS
PORTLAND ME    CLEAR     58  52  80 CALM      30.22R                  
BANGOR ME      CLEAR     53  49  86 CALM      30.21R                  
CONCORD NH     CLEAR     55  53  93 CALM      30.22R                  
MANCHESTER NH  CLEAR     65  53  65 CALM      30.20R                  
NASHUA NH      CLEAR     59  59 100 W5        30.22R                  
PORTSMOUTH NH  CLEAR     58  53  83 CALM      30.23R                  
JAFFREY NH     CLEAR     55  55 100 CALM      30.25R                  
KEENE NH       CLEAR     55  55 100 CALM      30.24R                  
BURLINGTON VT  CLEAR     56  50  80 E5        30.25R                  
MT. WASHINGTON CLEAR     45   5  19 N10         N/A                   
$$

NYZ052-076-200200-
EASTERN NEW YORK
  
CITY           SKY/WX    TMP DP  RH WIND       PRES   REMARKS
ALBANY         CLEAR     56  53  90 CALM      30.23R                  
NEW YORK CITY  CLEAR     73  50  44 NE3       30.19R                  
$$
 
ANZALL-200200-
MARINE OBSERVATIONS
  
STATION/POSITION TIME  TEMP    WIND        PRES    VSBY  WAVE
                       AIR SEA DIR/SP/G                  HT/PER
                 (UTC) (F)     (DEG/KT/KT) (MB)    (MI)  (FT/S)
BOSTON BUOY      0040      66  110/  4/  8 1023.3R
BUZZARDS BAY     0000           80/ 11/ 12 1023.4R
NANTUCKET SOUND  0040   67 72   40/ 10/ 14 1022.8R
MASS BAY-STELLWA 0004   64     130/  2/  4 1022.0R  1 7/8  4/11
ISLE OF SHOALS   0000   64     170/  4/  4 1021.9R
S OF BLOCK IS    0026      71                N/A           3/10
$$

......................KEY.........................
  SKY/WX - SKY CONDITION/PRESENT WEATHER
  TMP    - TEMPERATURE IN FAHRENHEIT
  DWPT   - DEWPOINT IN FAHRENHEIT
  RH     - RELATIVE HUMIDITY IN PERCENT
  WIND   - DIRECTION AND SPEED IN MPH
  PRES   - MEAN SEA LEVEL PRESSURE IN INCHES OF HG
  WCI    - WIND CHILL INDEX
  VSB    - VISIBILITY IN MILES
  HX     - HEAT INDEX
  TC     - TEMPERATURE IN CELSIUS
  VRB    - VARIABLE WIND DIRECTION
  N/A    - NOT AVAILABLE
  
      

Other recent Regional Weather Roundups

Thu Sep 23, 3:04am

Thu Sep 23, 2:04am

Thu Sep 23, 1:04am

Thu Sep 23, 12:04am

Wed Sep 22, 11:04pm

Wed Sep 22, 10:04pm

Wed Sep 22, 9:04pm

Wed Sep 22, 8:04pm

Wed Sep 22, 7:04pm

Wed Sep 22, 6:04pm

Wed Sep 22, 5:04pm

Wed Sep 22, 4:04pm

Wed Sep 22, 3:04pm

Wed Sep 22, 2:04pm

Wed Sep 22, 1:04pm

Wed Sep 22, 12:05pm

Wed Sep 22, 11:04am

Wed Sep 22, 10:04am

Wed Sep 22, 9:04am

Wed Sep 22, 8:04am

Wed Sep 22, 7:04am

Wed Sep 22, 6:04am

Wed Sep 22, 5:04am

Wed Sep 22, 4:04am

Wed Sep 22, 3:04am

Wed Sep 22, 2:04am

Wed Sep 22, 1:04am

Wed Sep 22, 12:04am

Tue Sep 21, 11:04pm

Tue Sep 21, 10:04pm

Tue Sep 21, 9:04pm

Tue Sep 21, 8:04pm

Tue Sep 21, 7:04pm

Tue Sep 21, 6:04pm

Tue Sep 21, 5:04pm

Tue Sep 21, 4:04pm

Tue Sep 21, 3:04pm

Tue Sep 21, 2:04pm

Tue Sep 21, 1:04pm

Tue Sep 21, 12:04pm

Tue Sep 21, 11:04am

Tue Sep 21, 10:04am

Tue Sep 21, 9:04am

Tue Sep 21, 8:04am

Tue Sep 21, 7:04am

Tue Sep 21, 6:04am

Tue Sep 21, 5:04am

Tue Sep 21, 4:04am

Tue Sep 21, 3:04am

Tue Sep 21, 2:04am

Tue Sep 21, 1:04am

Tue Sep 21, 12:04am

Mon Sep 20, 11:04pm

Mon Sep 20, 10:04pm

Mon Sep 20, 9:04pm

Mon Sep 20, 8:04pm

Mon Sep 20, 7:04pm

Mon Sep 20, 6:04pm

Mon Sep 20, 5:04pm

Mon Sep 20, 4:04pm

Mon Sep 20, 3:04pm

Mon Sep 20, 2:04pm

Mon Sep 20, 1:04pm

Mon Sep 20, 12:04pm

Mon Sep 20, 11:04am

Mon Sep 20, 10:04am

Mon Sep 20, 9:04am

Mon Sep 20, 7:04am

Mon Sep 20, 6:04am

Mon Sep 20, 5:04am

Mon Sep 20, 4:04am

Mon Sep 20, 3:04am

Mon Sep 20, 2:04am

Mon Sep 20, 1:04am

Mon Sep 20, 12:04am

Sun Sep 19, 11:04pm

Sun Sep 19, 10:04pm

Sun Sep 19, 8:04pm

Sun Sep 19, 7:04pm

Sun Sep 19, 6:04pm

Sun Sep 19, 5:04pm

Sun Sep 19, 4:04pm

Sun Sep 19, 3:04pm

Sun Sep 19, 2:05pm

Sun Sep 19, 1:04pm

Sun Sep 19, 12:04pm

Sun Sep 19, 11:04am

Sun Sep 19, 10:05am

Sun Sep 19, 9:04am

Sun Sep 19, 8:04am

Sun Sep 19, 7:04am

Sun Sep 19, 6:04am

Sun Sep 19, 5:04am

Sun Sep 19, 4:04am

Sun Sep 19, 3:04am

Sun Sep 19, 2:04am

Sun Sep 19, 1:04am

Sun Sep 19, 12:04am

Sat Sep 18, 11:05pm

Sat Sep 18, 10:04pm

Sat Sep 18, 9:04pm

Sat Sep 18, 8:04pm

Sat Sep 18, 7:04pm

Sat Sep 18, 6:04pm

Sat Sep 18, 5:04pm

Sat Sep 18, 4:04pm

Sat Sep 18, 3:04pm

Sat Sep 18, 2:04pm

Sat Sep 18, 1:04pm

Sat Sep 18, 12:04pm

Sat Sep 18, 11:04am

Sat Sep 18, 10:04am

Sat Sep 18, 9:04am

Sat Sep 18, 8:04am

Sat Sep 18, 7:04am

Sat Sep 18, 6:04am

Sat Sep 18, 5:04am

Sat Sep 18, 4:04am

Sat Sep 18, 3:04am

Sat Sep 18, 2:04am

Sat Sep 18, 1:04am

Sat Sep 18, 12:04am

Fri Sep 17, 11:04pm

Fri Sep 17, 10:04pm

Fri Sep 17, 9:04pm

Fri Sep 17, 8:04pm

Fri Sep 17, 7:04pm

Fri Sep 17, 6:04pm

Fri Sep 17, 5:04pm

Fri Sep 17, 4:04pm

Fri Sep 17, 3:04pm

Fri Sep 17, 2:04pm

Fri Sep 17, 1:04pm

Fri Sep 17, 12:05pm

Fri Sep 17, 11:04am

Fri Sep 17, 10:04am

Fri Sep 17, 9:04am

Fri Sep 17, 8:04am

Fri Sep 17, 7:04am

Fri Sep 17, 6:04am

Fri Sep 17, 5:04am

Fri Sep 17, 4:04am

Fri Sep 17, 3:04am

Fri Sep 17, 2:04am

Fri Sep 17, 1:04am

Fri Sep 17, 12:04am

Thu Sep 16, 11:04pm

Thu Sep 16, 10:04pm

Thu Sep 16, 9:04pm

Thu Sep 16, 8:04pm

Thu Sep 16, 7:04pm

Thu Sep 16, 6:04pm

Thu Sep 16, 5:04pm

Thu Sep 16, 4:04pm

Thu Sep 16, 3:04pm

Thu Sep 16, 2:04pm

Thu Sep 16, 1:05pm

Thu Sep 16, 12:04pm

Thu Sep 16, 11:05am

Thu Sep 16, 10:05am

Thu Sep 16, 9:04am

Thu Sep 16, 8:04am

Thu Sep 16, 7:04am

Thu Sep 16, 6:04am

Thu Sep 16, 5:04am

Thu Sep 16, 4:04am

Meta data:

ID: 3259246c-419e-4ffc-9eae-64e084aab04c
Link: https://api.weather.gov/products/3259246c-419e-4ffc-9eae-64e084aab04c